Regional Weather Roundup
Issued by NWS Charleston, SC

Current Version | Previous Version | Graphics & Text | Print | Product List | Glossary On
Versions: 1 2 3 4 5 6 7 8 9 10 11 12 13 14 15 16 17 18 19 20 21 22 23 24 25 26 27 28 29 30 31 32 33 34 35 36 37 38 39 40 41 42 43 44 45 46 47 48 49 50
000 ASUS42 KCHS 270626 RWRCHS REGIONAL WEATHER ROUNDUP NATIONAL WEATHER SERVICE CHARLESTON SC 200 AM EDT FRI MAR 27 2015 NOTE: "FAIR" INDICATES FEW OR NO CLOUDS BELOW 12,000 FEET WITH NO SIGNIFICANT WEATHER AND/OR OBSTRUCTIONS TO VISIBILITY. NOT ALL STATIONS ARE QUALITY CONTROLLED BY THE NATIONAL WEATHER SERVICE. USE DATA WITH CAUTION...ESPECIALLY DEWPOINT OBSERVATIONS. SCZ027-030-031-034>040-042>050-270700- ...SOUTHEAST SOUTH CAROLINA... CITY SKY/WX TMP DP RH WIND PRES REMARKS N CHARLESTON CLOUDY 65 63 93 S8 29.77F 6HR MIN TEMP: 64; 6HR MAX TEMP: 68; 6HR PCP: TRACE; WATERFRONT PRK N/A 64 N/A N/A SW12G17 N/A MOUNT PLEASANT DRIZZLE 66 64 94 S9 29.75F PINOPOLIS N/A 68 61 77 VRB2 29.69F MONCKS CORNER RAIN 64 61 88 CALM 29.76F SUMMERVILLE CLOUDY 63 63 100 CALM 29.77F BEAUFORT MCAS LGT RAIN 66 63 90 SW7 29.77F 6HR MIN TEMP: 66; 6HR MAX TEMP: 69; 6HR PCP: TRACE; BEAUFORT ARPT CLOUDY 64 64 100 SW3 29.76F HILTON HEAD IS CLOUDY 64 64 100 SW9 29.78F WALTERBORO CLOUDY 63 61 94 S6 29.77F ALLENDALE MOCLDY 66 61 82 VRB3 29.75F ...SOUTHERN MIDLANDS AND PEE DEE... CITY SKY/WX TMP DP RH WIND PRES REMARKS GEORGETOWN NOT AVBL KINGSTREE NOT AVBL ORANGEBURG CLOUDY 66 59 78 SW8 29.75F 6HR MIN TEMP: 66; 6HR MAX TEMP: 72; BARNWELL CLOUDY 66 61 82 SW7 29.75F AIKEN MOCLDY 63 55 77 SW10 29.77F MANNING FAIR 63 59 88 S5 29.75F COLUMBIA CLOUDY 67 56 67 SW10 29.73F 6HR MIN TEMP: 67; 6HR MAX TEMP: 73; SUMTER MOCLDY 66 59 78 SW8 29.72F 6HR MIN TEMP: 64; 6HR MAX TEMP: 69; FLORENCE CLOUDY 67 58 72 S10 29.74F 6HR MIN TEMP: 67; 6HR MAX TEMP: 72; MYRTLE BEACH CLOUDY 64 61 88 SW6 29.79F N MYRTLE BEACH LGT RAIN 64 60 87 SW10 29.78S 6HR MIN TEMP: 60; 6HR MAX TEMP: 64; 6HR PCP: TRACE; $$ GAZ063-065-086>088-099>101-113>116-118-119-134>141-150-270700- ...SOUTHEAST GEORGIA... CITY SKY/WX TMP DP RH WIND PRES REMARKS SAVANNAH ARPT CLOUDY 66 63 90 SW7 29.79F 6HR MIN TEMP: 65; 6HR MAX TEMP: 72; 6HR PCP: TRACE; HUNTER AAF DRIZZLE 64 64 100 W7 29.77S 6HR MIN TEMP: 65; 6HR MAX TEMP: 71; 6HR PCP: 0.06; FORT STEWART CLOUDY 66 64 94 SW8 29.78F 6HR MIN TEMP: 66; 6HR MAX TEMP: 68; 6HR PCP: 0.04; STATESBORO CLOUDY 64 64 100 SW8 29.77F SYLVANIA CLOUDY 64 63 98 SW5 29.78F CLAXTON MOCLDY 64 63 94 CALM 29.79F ...CSRA...CENTRAL AND FAR SOUTHEAST GEORGIA... CITY SKY/WX TMP DP RH WIND PRES REMARKS THOMSON CLOUDY 66 63 90 SW5 29.78F AUGUSTA-BUSH CLOUDY 65 59 81 SW9 29.75F 6HR MIN TEMP: 65; 6HR MAX TEMP: 70; AUGUSTA-DANIEL CLOUDY 66 59 78 SW8 29.75F SWAINSBORO MOCLDY 64 64 100 SW3 29.76F VIDALIA CLOUDY 63 63 100 SW6 29.78F EASTMAN FAIR 63 63 100 CALM 29.80F HAZLEHURST MOCLDY 63 63 100 S3 29.77F ALMA CLOUDY 63 61 93 S6 29.79F 6HR MIN TEMP: 63; 6HR MAX TEMP: 67; WAYCROSS CLOUDY 66 65 96 SW6 29.80F JESUP CLOUDY 68 64 88 W8 29.80F BAXLEY MOCLDY 64 63 94 SW3 29.78F BRUNSWICK CLOUDY 66 63 88 W13G18 29.82F SAINT SIMONS MOCLDY 66 62 87 W12G20 29.81F 6HR MIN TEMP: 65; 6HR MAX TEMP: 67; 6HR PCP: 0.01; $$ SCZ027-028-034-036>038-045-046-048>050-GAZ119-141-270700- ...LAKE AND SUPPLEMENTAL COASTAL OBSERVATIONS... STATION/POSITION TIME TEMP WIND PRES WAVE SWELL AIR SEA DIR/SP/G HT/PER HT/PER/DIR (UTC) (F) (DEG/KT/KT) (MB) (FT/S) (FT/S/D) UPR LAKE MARION NOT AVBL WINYAH BAY 0500 66 230/ 8 1008.0S LAKE MURRAY 0600 65 220/ 8/ 10 1006.1F ACE BASIN NERRS NOT AVBL FORT PULASKI 0500 65 60 200/ 7/ 12 1009.7F SAPELO ISLAND 0600 66 240/ 16 1009.0S $$ ANZ835-935-AMZ111-154-330-350-352-354-370-450-454-472-270700- ...C-MAN AND BUOY OBSERVATIONS... STATION/POSITION TIME TEMP WIND PRES WAVE SWELL AIR SEA DIR/SP/G HT/PER HT/PER/DIR (UTC) (F) (DEG/KT/KT) (MB) (FT/S) (FT/S/D) BUOY 41004 0550 68 71 210/ 14/ 16 1007.5F 5/ 8 5/ 8 BUOY 41008 0550 64 62 220/ 17/ 21 1008.7F 3/ 8 2/130/ 8 FOLLY BEACH CMAN 0600 63 210/ 13/ 14 1008.1F CAPERS NEARSHORE 0500 63 230/ 10/ 12 N/A FRIPP NEARSHORE 0500 62 210/ 14/ 16 1008.9F STATION/POSITION TIME TEMP WIND PRES WAVE SWELL AIR SEA DIR/SP/G HT/PER HT/PER/DIR (UTC) (F) (DEG/KT/KT) (MB) (FT/S) (FT/S/D) 5E ST. MARYS GA 0521 64 N/A 3/ 8 FRYING PAN BUOY 0550 71 66 190/ 16/ 19 1008.1F 5/ 8 3/120/ 8 BUOY 41025 NOT AVBL CAPE LOOKOUT NC 0600 66 210/ 10/ 13 1007.6F BUOY 41002 0550 70 69 200/ 19/ 23 1012.8F 8/ 8 2/180/14 BUOY 41010 0520 77 76 200/ 19/ 21 1012.0F ST AUGUSTINE FL 0600 66 64 230/ 7/ 9 1012.0R $$

USA.gov is the U.S. government's official web portal to all federal, state and local government web resources and services.